Simultaneous Nadir Overpasses (SNOs) Predictions

Prediction of SNOs between LANDSAT-8 and NPP Satellite Orbit:

Table of predicted SNOs for the next 14.0 days since TLE Epoch: 3/30/2014
Index Date (LANDSAT-8) Time (LANDSAT-8) Lat,Lon (LANDSAT-8) SZA (LANDSAT-8 ) Date (NPP) Time (NPP) Lat,Lon (NPP) SZA (NPP ) Distance(km) Time Diff (sec)
1 04/01/2014 12:13:45 70.41, -6.63 65.74 04/01/2014 12:13:16 70.41, -6.59 65.74 1.53 29
2 04/01/2014 13:03:15 -70.33, 160.88 114.36 04/01/2014 13:03:58 -70.32, 160.87 114.37 0.82 43
3 04/04/2014 03:40:50 -70.69, -58.02 115.02 04/04/2014 03:39:38 -70.76, -58.70 114.92 26.01 72
4 04/04/2014 04:30:20 70.40, 109.20 64.69 04/04/2014 04:30:17 70.37, 109.23 64.67 3.06 3
5 04/04/2014 05:19:51 -70.27, -83.37 115.45 04/04/2014 05:20:59 -70.28, -83.31 115.44 2.76 68
6 04/06/2014 19:57:32 -70.49, 57.52 116.23 04/06/2014 19:56:34 -70.47, 57.53 116.25 3.09 58
7 04/06/2014 20:46:59 70.37,-135.02 63.65 04/06/2014 20:47:18 70.35,-134.97 63.62 3.17 19
8 04/06/2014 21:36:41 -69.64, 31.58 117.08 04/06/2014 21:37:49 -69.67, 33.38 117.09 69.61 68
9 04/09/2014 12:14:15 -70.44, 173.25 117.28 04/09/2014 12:13:35 -70.45, 173.33 117.27 2.76 40
10 04/09/2014 13:03:41 70.38, -19.20 62.64 04/09/2014 13:04:20 70.38, -19.26 62.65 2.52 39
11 04/12/2014 03:41:15 71.31, 122.76 62.60 04/12/2014 03:40:08 71.32, 120.31 62.66 87.38 67
12 04/12/2014 04:31:00 -70.42, -70.97 118.29 04/12/2014 04:30:35 -70.44, -70.89 118.28 3.20 25
13 04/12/2014 05:20:26 70.36, 96.58
